Location: Amberg
(48.0613°N, 10.6820°E)
Time: 20:10:48
(UTC+00:00)

SMAP - Pass Details

Date: 18 November 2025
Orbit: 681 x 683 km, 98.1° (Epoch: 05 December)

Event Time Altitude Azimuth Distance (km) Brightness Sun altitude
Rises 16:34:07 0° 165° (SSE) 3,033 6.4 -9.7°
Reaches altitude 10° 16:36:21 10° 165° (SSE) 2,122 5.6 -10.1°
Maximum altitude 16:41:00 88° 255° (WSW) 690 3.1 -10.8°
Drops below altitude 10° 16:45:41 10° 346° (NNW) 2,137 5.6 -11.6°
Sets 16:47:56 0° 347° (NNW) 3,057 6.4 -11.9°
